TimeCDT,TemperatureF,Dew PointF,Humidity,Sea Level PressureIn,VisibilityMPH,Wind Direction,Wind SpeedMPH,Gust SpeedMPH,PrecipitationIn,Events,Conditions,WindDirDegrees,DateUTC
12:15 AM,44.6,35.6,71,29.88,10.0,South,3.5,-,N/A,,Unknown,170,2013-03-31 05:15:00
12:35 AM,44.6,37.4,76,29.87,10.0,SSE,4.6,-,N/A,,Unknown,160,2013-03-31 05:35:00
12:55 AM,44.6,37.4,76,29.86,10.0,South,5.8,-,N/A,,Unknown,180,2013-03-31 05:55:00
1:15 AM,44.6,37.4,76,29.86,10.0,South,4.6,-,N/A,,Unknown,190,2013-03-31 06:15:00
1:35 AM,44.6,37.4,76,29.85,10.0,SSW,8.1,-,N/A,,Unknown,200,2013-03-31 06:35:00
1:55 AM,44.6,39.2,81,29.84,10.0,SSW,6.9,-,N/A,,Unknown,210,2013-03-31 06:55:00
2:15 AM,44.6,39.2,81,29.83,10.0,SW,8.1,-,N/A,,Unknown,220,2013-03-31 07:15:00
2:35 AM,44.6,41.0,87,29.83,10.0,SW,9.2,-,N/A,,Unknown,230,2013-03-31 07:35:00
2:55 AM,44.6,41.0,87,29.82,10.0,SW,9.2,-,N/A,,Unknown,230,2013-03-31 07:55:00
3:15 AM,44.6,41.0,87,29.82,7.0,SW,8.1,-,N/A,,Unknown,230,2013-03-31 08:15:00
3:35 AM,44.6,41.0,87,29.81,7.0,WSW,8.1,-,N/A,,Light Drizzle,240,2013-03-31 08:35:00
3:55 AM,44.6,42.8,93,29.81,4.0,WSW,10.4,-,N/A,Rain,Rain,250,2013-03-31 08:55:00
4:15 AM,44.6,42.8,93,29.80,2.5,WSW,10.4,-,N/A,,Drizzle,240,2013-03-31 09:15:00
4:35 AM,44.6,42.8,93,29.80,2.5,WSW,10.4,-,N/A,,Light Drizzle,240,2013-03-31 09:35:00
4:55 AM,44.6,42.8,93,29.80,2.0,WSW,11.5,-,N/A,,Mist,240,2013-03-31 09:55:00
5:15 AM,44.6,42.8,93,29.79,2.5,WSW,10.4,16.1,N/A,Rain,Light Rain,240,2013-03-31 10:15:00
5:35 AM,44.6,42.8,93,29.80,2.5,WSW,11.5,-,N/A,,Mist,250,2013-03-31 10:35:00
5:55 AM,44.6,44.6,100,29.80,3.0,WSW,11.5,17.3,N/A,,Mist,250,2013-03-31 10:55:00
6:15 AM,44.6,44.6,100,29.80,3.0,WSW,10.4,-,N/A,,Mist,250,2013-03-31 11:15:00
6:35 AM,44.6,44.6,100,29.81,4.0,WSW,9.2,-,N/A,,Mist,250,2013-03-31 11:35:00
6:55 AM,44.6,42.8,93,29.80,3.0,West,8.1,-,N/A,,Mist,260,2013-03-31 11:55:00
7:15 AM,44.6,42.8,93,29.79,3.0,West,6.9,-,N/A,,Mist,260,2013-03-31 12:15:00
7:35 AM,44.6,42.8,93,29.81,4.0,West,9.2,-,N/A,,Mist,260,2013-03-31 12:35:00
7:55 AM,44.6,42.8,93,29.81,4.0,WSW,8.1,-,N/A,,Mist,250,2013-03-31 12:55:00
8:15 AM,44.6,42.8,93,29.80,5.0,West,9.2,-,N/A,,Mist,270,2013-03-31 13:15:00
8:35 AM,44.6,42.8,93,29.81,7.0,West,11.5,-,N/A,,Unknown,270,2013-03-31 13:35:00
8:55 AM,46.4,42.8,87,29.81,7.0,West,12.7,17.3,N/A,,Unknown,270,2013-03-31 13:55:00
9:15 AM,46.4,42.8,87,29.81,10.0,West,12.7,-,N/A,,Unknown,270,2013-03-31 14:15:00
9:35 AM,46.4,42.8,87,29.80,10.0,West,13.8,-,N/A,,Unknown,270,2013-03-31 14:35:00
9:55 AM,48.2,41.0,76,29.81,10.0,West,13.8,-,N/A,,Unknown,270,2013-03-31 14:55:00
10:15 AM,50.0,41.0,71,29.80,10.0,West,9.2,-,N/A,,Unknown,260,2013-03-31 15:15:00
10:35 AM,50.0,41.0,71,29.81,10.0,West,15.0,-,N/A,,Unknown,260,2013-03-31 15:35:00
10:55 AM,51.8,37.4,58,29.80,10.0,West,12.7,18.4,N/A,,Unknown,260,2013-03-31 15:55:00
11:15 AM,53.6,37.4,54,29.80,10.0,WSW,10.4,17.3,N/A,,Unknown,240,2013-03-31 16:15:00
11:35 AM,53.6,37.4,54,29.80,10.0,West,11.5,-,N/A,,Unknown,270,2013-03-31 16:35:00
11:55 AM,55.4,35.6,47,29.79,10.0,West,11.5,18.4,N/A,,Unknown,260,2013-03-31 16:55:00
12:15 PM,55.4,35.6,47,29.79,10.0,West,12.7,18.4,N/A,,Unknown,270,2013-03-31 17:15:00
12:35 PM,57.2,33.8,41,29.78,10.0,West,15.0,19.6,N/A,,Unknown,270,2013-03-31 17:35:00
12:55 PM,57.2,33.8,41,29.77,10.0,West,17.3,23.0,N/A,,Unknown,260,2013-03-31 17:55:00
1:15 PM,59.0,33.8,39,29.76,10.0,West,13.8,19.6,N/A,,Unknown,260,2013-03-31 18:15:00
1:35 PM,59.0,33.8,39,29.76,10.0,West,15.0,21.9,N/A,,Unknown,260,2013-03-31 18:35:00
1:55 PM,60.8,32.0,34,29.75,10.0,West,12.7,-,N/A,,Unknown,260,2013-03-31 18:55:00
2:15 PM,60.8,32.0,34,29.74,10.0,WSW,20.7,24.2,N/A,,Unknown,240,2013-03-31 19:15:00
2:35 PM,60.8,32.0,34,29.74,10.0,West,17.3,24.2,N/A,,Unknown,260,2013-03-31 19:35:00
2:55 PM,60.8,33.8,36,29.73,10.0,WSW,20.7,31.1,N/A,,Unknown,250,2013-03-31 19:55:00
3:15 PM,60.8,32.0,34,29.73,10.0,West,18.4,29.9,N/A,,Unknown,260,2013-03-31 20:15:00
3:35 PM,60.8,32.0,34,29.73,10.0,WSW,20.7,31.1,N/A,,Unknown,250,2013-03-31 20:35:00
3:55 PM,60.8,32.0,34,29.72,10.0,WSW,24.2,31.1,N/A,,Unknown,250,2013-03-31 20:55:00
4:15 PM,59.0,33.8,39,29.72,10.0,West,19.6,27.6,N/A,,Unknown,260,2013-03-31 21:15:00
4:35 PM,59.0,32.0,36,29.73,10.0,West,23.0,28.8,N/A,,Unknown,270,2013-03-31 21:35:00
4:55 PM,59.0,32.0,36,29.73,10.0,West,23.0,27.6,N/A,,Unknown,270,2013-03-31 21:55:00
5:15 PM,59.0,32.0,36,29.73,10.0,West,25.3,32.2,N/A,,Unknown,270,2013-03-31 22:15:00
5:35 PM,59.0,32.0,36,29.74,10.0,West,20.7,26.5,N/A,,Unknown,280,2013-03-31 22:35:00
5:55 PM,57.2,30.2,36,29.74,10.0,West,21.9,32.2,N/A,,Unknown,270,2013-03-31 22:55:00
6:15 PM,55.4,30.2,38,29.74,10.0,West,16.1,26.5,N/A,,Unknown,270,2013-03-31 23:15:00
6:35 PM,53.6,30.2,41,29.76,10.0,West,17.3,24.2,N/A,,Unknown,280,2013-03-31 23:35:00
6:55 PM,51.8,32.0,47,29.76,10.0,WNW,15.0,23.0,N/A,,Unknown,290,2013-03-31 23:55:00
7:15 PM,51.8,30.2,44,29.78,10.0,WNW,18.4,26.5,N/A,,Unknown,290,2013-04-01 00:15:00
7:35 PM,50.0,30.2,47,29.79,10.0,WNW,17.3,25.3,N/A,,Unknown,290,2013-04-01 00:35:00
7:55 PM,46.4,30.2,53,29.80,10.0,WNW,13.8,21.9,N/A,,Unknown,290,2013-04-01 00:55:00
8:15 PM,46.4,30.2,53,29.80,10.0,WNW,10.4,17.3,N/A,,Unknown,300,2013-04-01 01:15:00
8:35 PM,46.4,30.2,53,29.81,10.0,WNW,10.4,-,N/A,,Unknown,290,2013-04-01 01:35:00
9:15 PM,44.6,28.4,53,29.83,10.0,West,16.1,25.3,N/A,,Unknown,280,2013-04-01 02:15:00
9:35 PM,44.6,32.0,61,29.85,10.0,WNW,18.4,27.6,N/A,,Unknown,290,2013-04-01 02:35:00
9:55 PM,41.0,30.2,65,29.86,10.0,WNW,18.4,25.3,N/A,,Unknown,300,2013-04-01 02:55:00
10:15 PM,41.0,28.4,61,29.86,10.0,WNW,15.0,26.5,N/A,,Unknown,300,2013-04-01 03:15:00
10:35 PM,39.2,28.4,65,29.86,10.0,NW,15.0,20.7,N/A,,Unknown,310,2013-04-01 03:35:00
10:55 PM,39.2,28.4,65,29.87,10.0,NW,13.8,19.6,N/A,,Unknown,310,2013-04-01 03:55:00
11:15 PM,39.2,28.4,65,29.87,10.0,WNW,11.5,17.3,N/A,,Unknown,300,2013-04-01 04:15:00
11:55 PM,37.4,26.6,65,29.87,10.0,NW,12.7,18.4,N/A,,Unknown,310,2013-04-01 04:55:00